Latest Coastal Weather Observations for Willis Island

IDQ60701

Issued at 10:35 pm EST Wednesday 22 October 2014 (issued every 10 minutes, with the page automatically refreshed every 10 minutes)

About coastal observations | Map of coastal stations | Coastal observations for QLD | Marine services | Other Formats
Station Details ID: 200283 Name: WILLIS ISLAND Lat: -16.29 Lon: 149.97 Height: 9.29 m
Data from the previous 72 hours. | See also: Recent months at Willis Island
Date/Time
EST
Temp

°C
Wind Pressure Rain
since 9am
mm
Weather Cloud Vis
km
Sea
Height
m
Swell
Dir
 
Speed
knots
Gust
knots
hPa Trend Height
m
Period
s
Dir
22/10:30pm 24.2 SE 19 22 1017.9 - 0.0 - - - - - - -
22/10:00pm 24.3 SE 19 23 1018.1 - 0.0 - - - - - - -
22/09:30pm 24.4 ESE 20 23 1018.1 - 0.0 - - - - - - -
22/09:00pm 24.2 SE 20 23 1017.7 R 0.0 Fine Mostly clear 30 1 1.8 8 SE
22/08:30pm 24.4 SE 20 25 1017.7 - 0.0 - - - - - - -
22/08:00pm 24.3 SE 21 25 1017.4 - 0.0 - - - - - - -
22/07:30pm 24.3 SE 23 29 1016.9 - 0.0 - - - - - - -
22/07:00pm 24.4 SE 24 30 1016.5 - 0.0 - - - - - - -
22/06:30pm 24.3 SE 23 28 1016.2 - 0.0 - - - - - - -
22/06:00pm 24.4 SE 21 25 1016.0 R 0.0 Fine Mostly clear 30 1 1.8 8 SE
22/05:30pm 24.6 SE 22 25 1015.7 - 0.0 - - - - - - -
22/05:00pm 25.0 SE 21 25 1015.4 - 0.0 - - - - - - -
22/04:30pm 25.2 SE 23 26 1015.2 - 0.0 - - - - - - -
22/04:00pm 25.7 SE 23 26 1015.0 - 0.0 - - - - - - -
22/03:30pm 25.6 SE 24 28 1015.0 - 0.0 - - - - - - -
22/03:00pm 25.7 SE 25 28 1015.0 R 0.0 Fine Mostly clear 25 2 2.0 9 SE
22/02:30pm 25.6 SE 25 28 1015.2 - 0.0 - - - - - - -
22/02:00pm 25.8 SE 23 27 1015.4 - 0.0 - - - - - - -
22/01:30pm 26.5 SE 21 24 1015.6 - 0.0 - - - - - - -
22/01:00pm 26.2 SE 22 27 1015.9 - 0.0 - - - - - - -
22/12:30pm 26.6 SE 23 27 1016.2 - 0.0 - - - - - - -
22/12:00pm 26.8 SE 23 27 1016.5 R 0.0 Fine Mostly clear 30 2 2.0 7 SE
22/11:30am 27.0 SE 22 26 1017.0 - 0.0 - - - - - - -
22/11:00am 26.4 SE 24 28 1017.3 - 0.0 - - - - - - -
22/10:30am 26.6 SE 24 27 1017.4 - 0.0 - - - - - - -
22/10:00am 26.4 SE 23 27 1017.6 - 0.0 - - - - - - -
22/09:30am 25.6 SE 23 27 1017.7 - 0.0 - - - - - - -
22/09:00am 25.6 SSE 24 28 1017.7 R 0.4 Fine Mostly clear 30 2 2.0 7 SE
22/08:30am 25.0 SE 23 28 1017.8 - 0.4 - - - - - - -
22/08:00am 25.1 SE 23 28 1017.5 - 0.4 - - - - - - -
22/07:30am 24.8 SE 23 28 1017.1 - 0.4 - - - - - - -
22/07:00am 24.6 SE 24 27 1017.0 - 0.4 - - - - - - -
22/06:30am 24.3 SE 22 26 1016.5 - 0.4 - - - - - - -
22/06:00am 24.2 SE 23 27 1016.0 F 0.4 Fine Partly cloudy 25 2 2.0 8 SE
22/05:30am 24.0 SE 23 26 1015.7 - 0.4 - - - - - - -
22/05:00am 24.0 SE 22 27 1015.6 - 0.4 - - - - - - -
22/04:30am 23.7 SE 21 25 1015.4 - 0.4 - - - - - - -
22/04:00am 23.5 SE 22 25 1015.2 - 0.4 - - - - - - -
22/03:30am 23.5 SE 23 27 1015.2 - 0.4 - - - - - - -
22/03:00am 23.3 SE 24 28 1015.4 - 0.4 - - - - - - -
22/02:30am 23.0 SE 22 27 1015.7 - 0.4 - - - - - - -
22/02:00am 23.4 SE 24 27 1015.9 - 0.4 - - - - - - -
22/01:30am 23.6 SSE 23 28 1016.2 - 0.0 - - - - - - -
22/01:00am 23.1 SSE 22 27 1016.8 - 0.0 - - - - - - -
22/12:30am 22.8 SSE 24 28 1017.5 - 0.0 - - - - - - -
22/12:00am 23.6 SSE 23 27 1017.9 - 0.0 - - - - - - -
 
Date/Time
EST
Temp

°C
Wind Pressure Rain
since 9am
mm
Weather Cloud Vis
km
Sea
Height
m
Swell
Dir
 
Speed
knots
Gust
knots
hPa Trend Height
m
Period
s
Dir
21/11:57pm 23.7 SSE 22 26 1018.0 - 0.0 - - - - - - -
21/11:30pm 24.3 SE 21 25 1018.3 - 0.0 - - - - - - -
21/11:00pm 24.2 SE 21 24 1018.6 - 0.0 - - - - - - -
21/10:30pm 24.2 SE 23 26 1018.7 - 0.0 - - - - - - -
21/10:00pm 24.4 SE 22 26 1018.9 - 0.0 - - - - - - -
21/09:30pm 24.4 SE 23 27 1018.8 - 0.0 - - - - - - -
21/09:00pm 24.6 SE 22 25 1018.6 R 0.0 Haze Partly cloudy 20 2 - - -
21/08:30pm 24.6 SE 22 25 1018.1 - 0.0 - - - - - - -
21/08:00pm 24.6 SE 23 27 1017.7 - 0.0 - - - - - - -
21/07:30pm 24.5 SE 22 26 1017.5 - 0.0 - - - - - - -
21/07:00pm 24.6 SE 24 28 1017.3 - 0.0 - - - - - - -
21/06:30pm 24.6 SE 24 29 1017.0 - 0.0 - - - - - - -
21/06:00pm 24.7 SE 23 27 1016.7 R 0.0 Haze Mostly clear 20 2 2.0 5 SE
21/05:30pm 25.2 SE 23 27 1016.5 - 0.0 - - - - - - -
21/05:00pm 25.3 SE 23 28 1016.2 - 0.0 - - - - - - -
21/04:30pm 25.5 SE 24 29 1015.7 - 0.0 - - - - - - -
21/04:00pm 25.7 SE 23 27 1015.6 - 0.0 - - - - - - -
21/03:30pm 26.0 SE 23 27 1015.5 - 0.0 - - - - - - -
21/03:00pm 26.8 SE 22 27 1015.5 S 0.0 Fine Mostly clear 25 2 2.5 5 SE
21/02:30pm 26.7 SE 23 26 1015.6 - 0.0 - - - - - - -
21/02:00pm 26.9 ESE 22 25 1015.8 - 0.0 - - - - - - -
21/01:30pm 26.8 SE 22 25 1016.0 - 0.0 - - - - - - -
21/01:00pm 27.1 SE 21 25 1016.4 - 0.0 - - - - - - -
21/12:30pm 27.4 SE 20 24 1016.9 - 0.0 - - - - - - -
21/12:00pm 27.2 SE 21 24 1017.2 R 0.0 Fine Mostly clear 25 2 2.0 9 SE
21/11:30am 27.3 SE 22 25 1017.5 - 0.0 - - - - - - -
21/11:00am 26.9 ESE 23 27 1017.8 - 0.0 - - - - - - -
21/10:30am 26.5 SE 22 25 1018.0 - 0.0 - - - - - - -
21/10:00am 26.7 SE 22 26 1017.9 - 0.0 - - - - - - -
21/09:30am 26.6 SE 23 26 1017.9 - 0.0 - - - - - - -
21/09:00am 26.7 SE 22 25 1017.9 R 0.0 Fine Mostly clear 25 2 2.0 9 SE
21/08:30am 26.3 SE 21 25 1017.6 - 0.0 - - - - - - -
21/08:00am 25.8 ESE 22 26 1017.5 - 0.0 - - - - - - -
21/07:54am 25.3 ESE 22 26 1017.4 - 0.0 - - - - - - -
21/07:30am 24.0 SSE 22 26 1017.3 - 0.0 - - - - - - -
21/07:00am 24.0 SSE 22 25 1017.1 - 0.0 - - - - - - -
21/06:30am 23.8 SSE 21 24 1016.6 - 0.0 - - - - - - -
21/06:00am 23.5 SSE 21 25 1016.2 F 0.0 Distant precip. Mostly cloudy 25 2 2.0 9 SE
21/05:30am 23.7 SSE 19 23 1015.9 - 0.0 - - - - - - -
21/05:00am 23.5 SSE 20 23 1015.8 - 0.0 - - - - - - -
21/04:30am 23.6 SSE 20 23 1015.7 - 0.0 - - - - - - -
21/04:00am 23.8 SSE 20 24 1015.4 - 0.0 - - - - - - -
21/03:30am 23.7 SSE 23 27 1015.4 - 0.0 - - - - - - -
21/03:00am 24.2 SE 22 25 1015.3 - 0.0 - - - - - - -
21/02:30am 24.1 SSE 18 21 1015.5 - 0.0 - - - - - - -
21/02:00am 24.3 SE 20 23 1015.6 - 0.0 - - - - - - -
21/01:30am 24.3 SE 19 22 1015.9 - 0.0 - - - - - - -
21/01:00am 24.3 SE 20 22 1016.2 - 0.0 - - - - - - -
21/12:30am 24.3 SE 21 24 1016.6 - 0.0 - - - - - - -
21/12:00am 24.3 SE 20 24 1016.9 - 0.0 - - - - - - -
 
Date/Time
EST
Temp

°C
Wind Pressure Rain
since 9am
mm
Weather Cloud Vis
km
Sea
Height
m
Swell
Dir
 
Speed
knots
Gust
knots
hPa Trend Height
m
Period
s
Dir
20/11:30pm 24.5 SE 19 22 1017.1 - 0.0 - - - - - - -
20/11:00pm 24.4 SE 19 22 1017.3 - 0.0 - - - - - - -
20/10:30pm 24.4 SE 19 22 1017.5 - 0.0 - - - - - - -
20/10:00pm 24.4 SE 20 23 1017.6 - 0.0 - - - - - - -
20/09:30pm 24.4 SE 21 24 1017.5 - 0.0 - - - - - - -
20/09:00pm 24.5 SE 21 25 1017.4 F 0.0 Fine Mostly clear 25 2 - - -
20/08:30pm 24.4 SE 21 23 1017.1 - 0.0 - - - - - - -
20/08:00pm 24.4 SE 20 23 1017.0 - 0.0 - - - - - - -
20/07:30pm 24.5 SE 20 24 1016.7 - 0.0 - - - - - - -
20/07:00pm 24.6 SE 22 25 1016.5 - 0.0 - - - - - - -
20/06:30pm 24.3 SE 22 25 1016.2 - 0.0 - - - - - - -
20/06:00pm 24.6 SE 23 27 1016.0 F 0.0 Fine Mostly clear 25 2 2.0 7 SE
20/05:30pm 24.7 SE 22 26 1015.6 - 0.0 - - - - - - -
20/05:00pm 25.1 SE 24 28 1015.3 - 0.0 - - - - - - -
20/04:30pm 25.4 SE 24 29 1015.1 - 0.0 - - - - - - -
20/04:00pm 25.1 SE 22 26 1015.1 - 0.0 - - - - - - -
20/03:30pm 24.5 SE 25 29 1015.2 - 0.0 - - - - - - -
20/03:00pm 25.8 SE 24 29 1015.3 R 0.0 Fine Partly cloudy 25 2 2.0 7 SE
20/02:30pm 26.3 SE 22 26 1015.5 - 0.0 - - - - - - -
20/02:00pm 26.2 SE 22 27 1015.6 - 0.0 - - - - - - -
20/01:30pm 25.9 SE 23 28 1015.8 - 0.0 - - - - - - -
20/01:00pm 25.5 SE 24 28 1015.9 - 0.0 - - - - - - -
20/12:30pm 25.6 SE 25 28 1016.3 - 0.0 - - - - - - -
20/12:00pm 24.4 SE 23 28 1016.8 S 0.0 Showers Mostly cloudy 25 2 3.0 6 SE
20/11:53am 23.9 SE 24 28 1017.1 - 0.0 - - - - - - -
20/11:49am 24.6 ESE 25 27 1017.0 - 0.0 - - - - - - -
20/11:30am 26.2 SE 24 27 1017.2 - 0.0 - - - - - - -
20/11:00am 25.4 SE 25 29 1017.5 - 0.0 - - - - - - -
20/10:30am 26.6 SE 25 29 1017.7 - 0.0 - - - - - - -
20/10:00am 26.1 SE 22 27 1017.9 - 0.0 - - - - - - -
20/09:30am 25.1 SE 24 27 1018.1 - 0.0 - - - - - - -
20/09:00am 25.9 SE 24 28 1018.1 R 3.0 Distant precip. Partly cloudy 25 3 3.0 5 SE
20/08:30am 25.4 SE 24 27 1018.0 - 3.0 - - - - - - -
20/08:00am 25.3 ESE 25 28 1017.9 - 3.0 - - - - - - -
20/07:30am 24.5 SE 23 27 1017.7 - 3.0 - - - - - - -
20/07:00am 24.2 SE 25 33 1017.4 - 3.0 - - - - - - -
20/06:30am 24.1 SE 24 28 1016.9 - 3.0 - - - - - - -
20/06:00am 24.1 SE 27 33 1016.5 R 3.0 Distant precip. Mostly cloudy 25 2 3.0 6 SE
20/05:30am 23.7 SE 23 28 1016.1 - 3.0 - - - - - - -
20/05:00am 23.7 SE 25 31 1016.0 - 3.0 - - - - - - -
20/04:30am 22.5 ESE 25 31 1015.8 - 3.0 - - - - - - -
20/04:00am 22.1 ESE 27 33 1015.3 - 2.0 - - - - - - -
20/03:55am 22.9 ESE 22 33 1015.4 - 2.0 - - - - - - -
20/03:30am 22.6 ESE 28 32 1015.5 - 0.0 - - - - - - -
20/03:00am 24.0 SE 25 31 1015.3 - 0.0 - - - - - - -
20/02:30am 23.6 SE 23 29 1015.6 - 0.0 - - - - - - -
20/02:00am 23.7 SE 27 31 1015.7 - 0.0 - - - - - - -
20/01:30am 23.2 ESE 24 30 1016.0 - 0.0 - - - - - - -
20/01:18am 23.7 SE 24 35 1016.1 - 0.0 - - - - - - -
20/01:00am 24.4 SE 24 28 1016.2 - 0.0 - - - - - - -
20/12:30am 24.4 SE 26 31 1016.6 - 0.0 - - - - - - -
20/12:00am 24.5 SE 27 31 1016.9 - 0.0 - - - - - - -
 
Date/Time
EST
Temp

°C
Wind Pressure Rain
since 9am
mm
Weather Cloud Vis
km
Sea
Height
m
Swell
Dir
 
Speed
knots
Gust
knots
hPa Trend Height
m
Period
s
Dir
19/11:30pm 24.4 SE 27 31 1017.2 - 0.0 - - - - - - -
19/11:00pm 24.6 SE 26 31 1017.5 - 0.0 - - - - - - -

Other Formats:

Comma delimited format used in spreadsheet applications
http://www.bom.gov.au/fwo/IDQ60701/IDQ60701.94299.axf

JavaScript Object Notation format (JSON) in row-major order
http://www.bom.gov.au/fwo/IDQ60701/IDQ60701.94299.json